Change the Weather History Date:

Monday, February 18, 2013

  Actual Average Record
Temperature  
Mean Temperature 29 °F 32 °F  
Max Temperature 45 °F 40 °F 60 °F (2008)
Min Temperature 12 °F 24 °F 5 °F (2006)
Degree Days  
Heating Degree Days 36 33  
Month to date heating degree days 648 612  
Since 1 July heating degree days 3679 3854  
Cooling Degree Days 0    
Month to date cooling degree days 0  
Year to date cooling degree days 0  
Moisture  
Dew Point 15 °F    
Average Humidity 53    
Maximum Humidity 67    
Minimum Humidity 39    
Precipitation  
Precipitation 0.00 in 0.08 in 0.84 in (2000)
Month to date precipitation 0.64 1.36  
Sea Level Pressure  
Sea Level Pressure 30.16 in    
Wind  
Wind Speed 9 mph (SSE)    
Max Wind Speed 17 mph    
Max Gust Speed 21 mph    
Visibility 10 miles    
Events      
T = Trace of Precipitation, MM = Missing Value Source: NWS Daily Summary

Daily Weather History Graph

Daily Weather History Graph

Search for Another Location

Airport or City:

Trip Planner

Search our weather history database for the weather conditions in past years. The results will help you decide how hot, cold, wet, or windy it might be!

Date:

Astronomy

Feb. 18, 2013 Rise Set
Actual Time 7:11 AM EST 6:02 PM EST
Civil Twilight 6:43 AM EST 6:29 PM EST
Nautical Twilight 6:12 AM EST 7:01 PM EST
Astronomical Twilight 5:40 AM EST 7:32 PM EST
Moon 11:46 AM EST (2/18) 1:50 AM EST (2/18)
Length of Visible Light 11h 45m
Length of Day
10h 50m
First Quarter, 58% of the Moon is Illuminated
Feb 18
First Quarter
Feb 25
Full
Mar 4
Last Quarter
Mar 11
New
Mar 19
First Quarter

Hourly Weather History & Observations

Time (EST) Temp. Windchill Dew Point Humidity Pressure Visibility Wind Dir Wind Speed Gust Speed Precip Events Conditions
12:53 AM 14.0 °F 5.1 °F 3.9 °F 64% 30.31 in 10.0 mi SSW 5.8 mph - N/A   Clear
1:53 AM 14.0 °F 6.5 °F 3.9 °F 64% 30.31 in 10.0 mi South 4.6 mph - N/A   Clear
2:53 AM 14.0 °F 5.1 °F 3.9 °F 64% 30.30 in 10.0 mi South 5.8 mph - N/A   Clear
3:53 AM 12.9 °F 5.2 °F 3.9 °F 67% 30.30 in 10.0 mi SSE 4.6 mph - N/A   Clear
4:53 AM 12.9 °F 5.2 °F 3.9 °F 67% 30.31 in 10.0 mi South 4.6 mph - N/A   Clear
5:53 AM 12.0 °F 2.7 °F 3.9 °F 70% 30.31 in 10.0 mi SSE 5.8 mph - N/A   Clear
7:53 AM 14.0 °F 5.1 °F 5.0 °F 67% 30.32 in 10.0 mi SSE 5.8 mph - N/A   Clear
8:53 AM 19.0 °F 8.2 °F 6.1 °F 57% 30.31 in 10.0 mi SSE 9.2 mph - N/A   Clear
9:53 AM 23.0 °F 11.1 °F 9.0 °F 55% 30.29 in 10.0 mi South 12.7 mph - N/A   Mostly Cloudy
10:53 AM 27.0 °F 17.3 °F 9.0 °F 47% 30.26 in 10.0 mi SSE 10.4 mph - N/A   Partly Cloudy
11:53 AM 32.0 °F 24.2 °F 12.9 °F 45% 30.22 in 10.0 mi SE 9.2 mph - N/A   Clear
12:53 PM 36.0 °F 30.3 °F 16.0 °F 44% 30.18 in 10.0 mi SSE 6.9 mph - N/A   Clear
1:53 PM 39.9 °F 32.5 °F 18.0 °F 41% 30.13 in 10.0 mi SSE 12.7 mph - N/A   Partly Cloudy
2:53 PM 42.1 °F 35.7 °F 19.9 °F 41% 30.09 in 10.0 mi SSE 11.5 mph 19.6 mph N/A   Clear
3:53 PM 43.0 °F 36.8 °F 21.9 °F 43% 30.09 in 10.0 mi South 11.5 mph - N/A   Mostly Cloudy
4:53 PM 44.1 °F 37.4 °F 23.0 °F 43% 30.06 in 10.0 mi South 13.8 mph 18.4 mph N/A   Clear
5:53 PM 43.0 °F 37.7 °F 24.1 °F 47% 30.04 in 10.0 mi SSE 9.2 mph - N/A   Clear
6:53 PM 43.0 °F 37.7 °F 24.1 °F 47% 30.03 in 10.0 mi SSE 9.2 mph - N/A   Clear
8:53 PM 43.0 °F 37.7 °F 26.1 °F 51% 29.97 in 10.0 mi SSE 9.2 mph - N/A   Clear
9:53 PM 44.1 °F 37.1 °F 28.0 °F 53% 29.95 in 10.0 mi South 15.0 mph - N/A   Clear
10:53 PM 45.0 °F 38.2 °F 28.0 °F 52% 29.91 in 10.0 mi South 15.0 mph - N/A   Clear
11:53 PM 45.0 °F 38.2 °F 27.0 °F 49% 29.87 in 10.0 mi South 15.0 mph - N/A   Clear